Location: Poughquag
(41.6090°N, 73.6820°W)
Time: 20:52:10
(UTC-04:00)

CUBESAT XI-V - Pass Details

Date: 16 April 2024
Orbit: 657 x 680 km, 98.2° (Epoch: 23 May)

Event Time Altitude Azimuth Distance (km) Brightness Sun altitude
Exits shadow 04:11:56 11° 306° (NW) 2,045 ? -21.1°
Drops below altitude 10° 04:12:15 10° 309° (NW) 2,125 ? -21.0°
Sets 04:15:14 0° 329° (NNW) 3,042 ? -20.6°
